sat.trackr.live / text

‹ back to catalog

2024-105B

NORAD 59918 · 2024-105B

PAYLOAD ACTIVE UNKNOWN

§ Identity

Operator
Country
PRC
Launch date
2024-05-30
Launch site
JSC
Launch vehicle
Mass (kg)
RCS (m²)

External: N2YO · Heavens-Above · Gunter

§ Orbital elements

Epoch: 2026-05-25T03:52:40.716768Z

Period
94.81 min
Inclination
97.5833°
Eccentricity
0.0010895
Mean motion
15.18812729 rev/d
Perigee alt
501.9 km
Apogee alt
516.9 km
Semi-major
6,887.6 km
B*
2.3843e-4
RAAN
160.5320°
Arg perigee
333.3590°
Mean anomaly
26.7083°
Rev number
10,955

§ Raw data

2024-105B1 59918U 24105B   26145.16158237  .00004899  00000+0  23843-3 0  99972 59918  97.5833 160.5320 0010895 333.3590  26.7083 15.18812729109555

JSON: /api/v1/satellites/59918 · /tle

For live sub-satellite position, see the globe view (requires WebGL).

§ Visibility from observer

Set your observer location to see the next 7 days of passes ≥ 10°. The values pass through the URL so the page stays shareable.

No JS? Fill the form by hand. The geolocation button needs JavaScript.

§ Radio — SatNOGS DB

ModeDescriptionDownlinkUplink
FSK TLM 400.150 MHz
FM Telemetry 401.250 MHz

2 transmitters · refreshed weekly from db.satnogs.org